Meteopurmerend
purmerend
Purmerend - Baaienwijk



My webcam  My webcam


waarschuwing voor Onweer Meer informatie blitzortung!


Regen radar Meer informatie rain snow radar


Bezoek onze andere website:

CandyAppleRed WebdesignWebdesign Purmerend Candy Apple Red

MeteopurmerendBlog

Template documentation
and downloads



Onweer van: 26-07-2021 13:00 tot: 21:00 waarschuwing voor: Onweer niveau: Geel info button
Enkele onweersbuien, lokaal met hagel en veel neerslag in korte tijd.Kans op blikseminslag, hagel en veel neerslag in korte tijd.Verkeer en buitenactiviteiten kunnen hinder ondervinden.Mijd open water en open gebied, schuil niet onder bomen.Volg weerberichten en waarschuwingen.

15 daagse weersverwachting Ringsted (DK)

  • Overzicht
  • Per uur
  • 15 dagen
  • Extra
  • Vergelijk
  • Kaarten
  • Dagkaart
  • Meer »
  • Info
  • Statistieken
  • Directe link
    Temp 6h Neerslag Wind  
 05:12     21:28    Daglengte: 16:16 Vandaag
20:00
23°
 
4
 05:14     21:26    Daglengte: 16:12 Morgen
02:00
19°
 
3
08:00
20°
 
2
14:00
24°
1.5 mm
5
20:00
21°
 
4
 05:15     21:24    Daglengte: 16:09 Woensdag 28 Jul
02:00
16°
 
1
08:00
19°
 
3
14:00
21°
4.5 mm
6
20:00
19°
8.7 mm
4
 05:17     21:23    Daglengte: 16:06 Donderdag 29 Jul
02:00
16°
7.2 mm
4
08:00
17°
 
6
Locatie info
Region: Sjælland
Latitude: 55.4459°N
Longitude: 11.7873°E
54 masl
Postcode: 4100
Temp/Neerslag /Baro Onweer/Dauwpunt
    Temp Baro 1h Neerslag Dauwpunt Wind UV Bewolking  
 05:12     21:28    Daglengte: 16:16 Vandaag
16:00
25°
1010.8 hPa
20%
17.9°
4
Windvlaag: 4.5 m/s
57%
17:00
25°
1010.8 hPa
18%
17.0°
5
Windvlaag: 4.1 m/s
68%
18:00
25°
1010.6 hPa
20%
16.6°
5
Windvlaag: 4.1 m/s
36%
19:00
24°
1010.4 hPa
13%
16.5°
5
Windvlaag: 4 m/s
30%
20:00
23°
1010.4 hPa
18%
16.4°
4
Windvlaag: 6.3 m/s
60%
21:00
22°
1010.4 hPa
18%
16.6°
3
Windvlaag: 5.7 m/s
61%
22:00
21°
1010.4 hPa
13%
17.4°
2
Windvlaag: 4.5 m/s
50%
23:00
20°
1010.4 hPa
11%
17.5°
2
Windvlaag: 3.7 m/s
61%
 05:14     21:26    Daglengte: 16:12 Morgen
00:00
19°
1010.3 hPa
11%
17.5°
2
Windvlaag: 1.3 m/s
18%
01:00
19°
1009.9 hPa
11%
18.1°
2
Windvlaag: 0.9 m/s
22%
02:00
19°
1009.8 hPa
68%
18.1°
3
Windvlaag: 0.6 m/s
35%
03:00
19°
1009.7 hPa
68%
18.3°
2
Windvlaag: 0.4 m/s
39%
04:00
18°
1009.6 hPa
70%
18.2°
2
Windvlaag: 0.3 m/s
50% warningclass
05:00
18°
1009.2 hPa
65%
18.2°
2
Windvlaag: 0.7 m/s
66%
06:00
18°
1008.9 hPa
13%
18.3°
2
Windvlaag: 2 m/s
75%
07:00
19°
1008.9 hPa
15%
18.3°
2
Windvlaag: 2.4 m/s
77%
08:00
20°
1008.9 hPa
25%
18.2°
2
Windvlaag: 3.5 m/s
56%
09:00
22°
1009.1 hPa
78%
18.1°
3
Windvlaag: 4.2 m/s
50%
10:00
22°
1009.3 hPa 1.1 mm
80%
16.7°
4
Windvlaag: 4.3 m/s
52% warningclass
11:00
22°
1009.4 hPa 0.4 mm
77%
13.7°
4
Windvlaag: 5.1 m/s
57% warningclass
12:00
23°
1009.4 hPa
30%
13.9°
4
Windvlaag: 5.1 m/s
17%
13:00
24°
1009.3 hPa
75%
13.8°
5
Windvlaag: 6.4 m/s
18%
14:00
24°
1009.2 hPa
35%
13.6°
5
Windvlaag: 6.8 m/s
11%
15:00
24°
1009.1 hPa
53%
13.5°
5
Windvlaag: 6.6 m/s
32%
16:00
24°
1009.1 hPa
29%
15.7°
6
Windvlaag: 7.8 m/s
10%
17:00
23°
1009.0 hPa
61%
18.3°
5
Windvlaag: 7.4 m/s
11%
18:00
22°
1008.8 hPa
59%
17.7°
5
Windvlaag: 7.8 m/s
14%
19:00
22°
1008.8 hPa
13%
15.9°
5
Windvlaag: 7.2 m/s
20%
20:00
21°
1008.8 hPa
13%
15.0°
4
Windvlaag: 7.1 m/s
46%
21:00
20°
1009.1 hPa
14%
15.1°
3
Windvlaag: 5.8 m/s
63%
22:00
19°
1009.4 hPa
14%
15.7°
3
Windvlaag: 6 m/s
49%
23:00
18°
1009.4 hPa
14%
15.8°
3
Windvlaag: 5.9 m/s
8%
 05:15     21:24    Daglengte: 16:09 Woensdag 28 Jul
00:00
17°
1009.3 hPa
14%
15.9°
2
Windvlaag: 4.8 m/s
5%
01:00
16°
1009.2 hPa
14%
15.8°
2
Windvlaag: 2.7 m/s
8%
02:00
16°
1008.9 hPa
14%
15.7°
1
Windvlaag: 2.3 m/s
15%
03:00
16°
1008.6 hPa
14%
15.4°
1
Windvlaag: 2.6 m/s
21%
04:00
16°
1008.4 hPa
14%
15.5°
2
Windvlaag: 2.8 m/s
70%
05:00
16°
1008.0 hPa
16%
15.7°
2
Windvlaag: 4.5 m/s
84%
06:00
16°
1008.0 hPa
14%
16.2°
2
Windvlaag: 5.1 m/s
75%
07:00
17°
1007.8 hPa
26%
16.6°
2
Windvlaag: 4.5 m/s
62%
08:00
19°
1007.8 hPa
76%
16.2°
3
Windvlaag: 4.8 m/s
71%
09:00
20°
1007.8 hPa
26%
15.2°
4
Windvlaag: 5.6 m/s
40%
10:00
20°
1007.6 hPa
72%
14.9°
5
Windvlaag: 7.5 m/s
17%
11:00
20°
1007.6 hPa 2.3 mm
95%
13.8°
6
Windvlaag: 8 m/s
60%
12:00
20°
1007.4 hPa
83%
13.2°
6
Windvlaag: 8.4 m/s
37%
13:00
21°
1007.0 hPa
21%
15.1°
6
Windvlaag: 8.4 m/s
38%
14:00
21°
1006.6 hPa 2.3 mm
25%
15.5°
6
Windvlaag: 8.9 m/s
47%
15:00
21°
1006.4 hPa
71%
14.0°
6
Windvlaag: 8.6 m/s
37%
16:00
22°
1006.3 hPa
91%
14.3°
6
Windvlaag: 8.1 m/s
20%
17:00
21°
1006.1 hPa 1.4 mm
100%
15.7°
5
Windvlaag: 8.3 m/s
69%
18:00
21°
1005.6 hPa 2.9 mm
95%
13.7°
5
Windvlaag: 8.3 m/s
68%
19:00
20°
1005.4 hPa 2.1 mm
99%
12.1°
4
Windvlaag: 7 m/s
70%
20:00
19°
1005.2 hPa 2.4 mm
100%
11.1°
4
Windvlaag: 6.9 m/s
52%
21:00
18°
1005.1 hPa 2.6 mm
100%
13.5°
4
Windvlaag: 5.8 m/s
71%
22:00
18°
1005.6 hPa 2.2 mm
40%
14.6°
4
Windvlaag: 6.4 m/s
64%
23:00
17°
1005.3 hPa
23%
15.9°
5
Windvlaag: 7.1 m/s
11%
 05:17     21:23    Daglengte: 16:06 Donderdag 29 Jul
00:00
17°
1005.1 hPa 2.5 mm
25%
16.2°
4
Windvlaag: 6.8 m/s
56%
01:00
16°
1005.0 hPa
27%
15.9°
4
Windvlaag: 5.2 m/s
68%
02:00
16°
1004.6 hPa
31%
15.4°
4
Windvlaag: 5.3 m/s
71%
03:00
16°
1004.3 hPa
27%
15.1°
4
Windvlaag: 5.5 m/s
63%
04:00
16°
1004.2 hPa
25%
14.5°
4
Windvlaag: 5.7 m/s
25%
05:00
15°
1003.9 hPa
30%
14.4°
4
Windvlaag: 5.9 m/s
52%
06:00
15°
1003.6 hPa
33%
14.6°
5
Windvlaag: 7.2 m/s
57%
07:00
16°
1003.4 hPa
35%
13.5°
6
Windvlaag: 8.5 m/s
52%
08:00
17°
1003.3 hPa
82%
12.0°
6
Windvlaag: 9.1 m/s
87%
09:00
16°
1001.7 hPa 2.2 mm
86%
10.6°
7
Windvlaag: 12.6 m/s
100%
10:00
17°
1001.5 hPa 2.2 mm
87%
11.0°
8
Windvlaag: 12.8 m/s
100%
11:00
17°
1001.7 hPa 2.6 mm
100%
11.6°
8
Windvlaag: 13.2 m/s
99%
12:00
17°
1001.6 hPa 2.6 mm
100%
8.5°
9
Windvlaag: 15.2 m/s
87%
13:00
18°
1001.5 hPa
85%
6.1°
10
Windvlaag: 14.5 m/s
95%
14:00
17°
1001.7 hPa 2.4 mm
100%
7.5°
9
Windvlaag: 14.1 m/s
73%
Temp/Neerslag /Baro Onweer/Dauwpunt
    Temp Baro Neerslag Dauwpunt Wind Bewolking  
 05:12     21:28    Daglengte: 16:16 Vandaag
17:00
25°
1010.8 hPa   17.0°
5
68%
20:00
23°
1010.4 hPa   16.4°
4
60%
23:00
20°
1010.4 hPa   17.5°
2
61%
 05:14     21:26    Daglengte: 16:12 Morgen
02:00
19°
1009.8 hPa   18.1°
3
35%
05:00
18°
1009.2 hPa   18.2°
2
66%
08:00
20°
1008.9 hPa   18.2°
2
56%
11:00
22°
1009.4 hPa 1.5 mm 13.7°
4
57% warningclass
14:00
24°
1009.2 hPa   13.6°
5
11%
17:00
23°
1009.0 hPa   18.3°
5
11%
20:00
21°
1008.8 hPa   15.0°
4
46%
23:00
18°
1009.4 hPa   15.8°
3
8%
 05:15     21:24    Daglengte: 16:09 Woensdag 28 Jul
02:00
16°
1008.9 hPa   15.7°
1
15%
05:00
16°
1008.0 hPa   15.7°
2
84%
08:00
19°
1007.8 hPa   16.2°
3
71%
11:00
20°
1007.6 hPa 2.3 mm 13.8°
6
60%
14:00
21°
1006.6 hPa 2.3 mm 15.5°
6
47%
17:00
21°
1006.1 hPa 1.4 mm 15.7°
5
69%
20:00
19°
1005.2 hPa 7.4 mm 11.1°
4
52%
23:00
17°
1005.3 hPa 4.7 mm 15.9°
5
11%
 05:17     21:23    Daglengte: 16:06 Donderdag 29 Jul
02:00
16°
1004.6 hPa 2.5 mm 15.4°
4
71%
05:00
15°
1003.9 hPa   14.4°
4
52%
08:00
17°
1003.3 hPa   12.0°
6
87%
11:00
17°
1001.7 hPa 7.0 mm 11.6°
8
99%
14:00
17°
1001.7 hPa 7.3 mm 7.5°
9
73%
17:00
15°
1001.6 hPa 9.3 mm 13.3°
12
1%
20:00
16°
1002.6 hPa 9.8 mm 12.0°
10
1%
23:00
15°
1002.5 hPa 9.9 mm 11.6°
8
0%
 05:19     21:21    Daglengte: 16:02 Vrijdag 30 Jul
02:00
15°
1001.0 hPa 10.7 mm 13.3°
9
1%
05:00
15°
1000.4 hPa 11.4 mm 13.2°
8
1%
08:00
16°
1001.5 hPa 11.5 mm 13.7°
8
1%
11:00
20°
1002.1 hPa 11.7 mm 13.1°
9
1%
14:00
21°
1002.4 hPa 12.2 mm 12.7°
10
1%
17:00
20°
1003.4 hPa 12.2 mm 12.6°
10
1%
20:00
17°
1004.0 hPa 12.2 mm 12.3°
9
0%
23:00
15°
1004.5 hPa 12.2 mm 11.9°
7
1%
 05:21     21:19    Daglengte: 15:58 Zaterdag 31 Jul
02:00
15°
1004.9 hPa 12.2 mm 12.7°
6
1%
05:00
14°
1004.1 hPa 12.3 mm 13.6°
5
1%
08:00
17°
1004.4 hPa 12.3 mm 13.2°
6
1%
11:00
18°
1004.3 hPa 12.3 mm 12.8°
5
1%
14:00
19°
1003.2 hPa 12.4 mm 13.1°
5
1%
17:00
18°
1002.0 hPa 14.9 mm 14.9°
6
1%
20:00
17°
1001.0 hPa 16.7 mm 14.8°
5
1%
23:00
14°
1000.8 hPa 16.8 mm 12.3°
3
1%
 05:23     21:17    Daglengte: 15:54 Zondag 01 Aug
02:00
14°
1000.2 hPa 17.1 mm 12.2°
4
1%
05:00
12°
1000.6 hPa 17.2 mm 11.7°
3
1%
08:00
15°
1001.8 hPa 17.2 mm 11.2°
5
1%
11:00
18°
1002.2 hPa 17.2 mm 9.9°
7
1%
14:00
19°
1002.5 hPa 17.4 mm 9.3°
6
1%
17:00
19°
1002.8 hPa 18.1 mm 8.9°
6
1%
20:00
16°
1003.0 hPa 18.1 mm 9.5°
5
1%
23:00
13°
1003.7 hPa 18.1 mm 8.2°
4
1%
 05:24     21:15    Daglengte: 15:51 Maandag 02 Aug
02:00
12°
1004.0 hPa 18.1 mm 8.6°
5
0%
05:00
12°
1003.8 hPa 18.2 mm 8.0°
6
0%
08:00
14°
1004.3 hPa 18.4 mm 9.6°
8
0%
11:00
16°
1005.4 hPa 18.7 mm 10.0°
8
1%
14:00
18°
1006.4 hPa 37.6 mm 9.3°
9
1%
20:00
16°
1007.9 hPa 38.2 mm 7.9°
8
1%
 05:26     21:13    Daglengte: 15:47 Dinsdag 03 Aug
02:00
13°
1010.0 hPa 38.7 mm 8.9°
6
1%
08:00
15°
1010.8 hPa 39.2 mm 10.7°
6
1%
14:00
18°
1011.0 hPa 39.7 mm 8.9°
7
1%
20:00
17°
1010.6 hPa 40.3 mm 10.8°
3
1%
 05:28     21:11    Daglengte: 15:43 Woensdag 04 Aug
02:00
12°
1011.5 hPa 40.5 mm 10.5°
3
0%
08:00
17°
1009.1 hPa 40.5 mm 12.8°
7
1%
14:00
19°
1007.1 hPa 41.6 mm 12.8°
9
1%
20:00
16°
1005.1 hPa 43.9 mm 14.8°
7
1%
 05:30     21:09    Daglengte: 15:39 Donderdag 05 Aug
02:00
14°
1003.6 hPa 47.4 mm 13.0°
6
1%
08:00
16°
1001.8 hPa 48.5 mm 13.1°
8
0%
14:00
20°
1009.4 hPa 0.8 mm 11.6°
4
70%
20:00
18°
1008.5 hPa 0.8 mm 12.1°
3
65%
 05:32     21:07    Daglengte: 15:35 Vrijdag 06 Aug
02:00
14°
1008.5 hPa 0.6 mm 12.1°
3
62%
08:00
16°
1007.9 hPa 0.6 mm 12.2°
3
64%
14:00
20°
1007.9 hPa 1.4 mm 11.4°
4
67%
20:00
17°
1007.7 hPa 1.1 mm 11.8°
3
66%
 05:34     21:05    Daglengte: 15:31 Zaterdag 07 Aug
02:00
14°
1008.3 hPa 0.4 mm 11.4°
2
56%
08:00
16°
1008.5 hPa 0.4 mm 11.8°
3
50%
14:00
20°
1008.8 hPa 0.2 mm 11.6°
4
59%
20:00
17°
1008.7 hPa 0.8 mm 11.8°
3
57%
 05:36     21:02    Daglengte: 15:26 Zondag 08 Aug
02:00
14°
1009.2 hPa 0.4 mm 11.7°
3
66%
08:00
16°
1009.1 hPa 0.6 mm 11.8°
3
69%
14:00
19°
1009.3 hPa 1.3 mm 12.2°
3
69%
20:00
17°
1009.2 hPa 1.7 mm 12.3°
3
71%
 05:37     21:00    Daglengte: 15:23 Maandag 09 Aug
02:00
14°
1010.0 hPa 1.6 mm 11.9°
3
64%
08:00
16°
1010.9 hPa 0.1 mm 12.2°
3
63%
14:00
20°
1012.1 hPa 0.7 mm 11.9°
4
64%
20:00
18°
1012.5 hPa 0.6 mm 12.1°
4
59%
 05:39     20:58    Daglengte: 15:19 Dinsdag 10 Aug
02:00
14°
1013.2 hPa 0.3 mm 11.7°
3
56%
08:00
16°
1012.9 hPa 0.6 mm 11.9°
3
55%
14:00
20°
1013.3 hPa 0.8 mm 11.4°
5
58%
  CAPE Lifted Index Hail Supercell Tornado SRH 3km CL BTM PRES CL TOP PRES Swiss DWD icon SMHI TS
 05:12     21:28    Daglengte: 16:16 Vandaag
16:00 462 J/kg -2.4 K 0 % 0 % 0 % 0 m²/s² 0 0 -2.28 3
17:00 485 J/kg -2.2 K 0 % 0 % 0 % 0 m²/s² 0 0 -2.08 3
18:00 289 J/kg -1.6 K 0 % 0 % 0 % 0 m²/s² 0 0 -1.24 3
19:00 199 J/kg -1.0 K 0 % 0 % 0 % 0 m²/s² 0 0 -0.37 3
20:00 327 J/kg -1.7 K 0 % 0 % 0 % 0 m²/s² 0 0 -0.8 3
21:00 426 J/kg -1.7 K 0 % 0 % 0 % 0 m²/s² 0 0 -0.65 3
22:00 570 J/kg -2.1 K 0 % 0 % 0 % 0 m²/s² 0 0 -0.84 3
23:00 674 J/kg -2.2 K 0 % 0 % 0 % 0 m²/s² 0 0 -0.82 3
 05:14     21:26    Daglengte: 16:12 Morgen
00:00 694 J/kg -2.4 K 0 % 0 % 0 % 0 m²/s² 0 0 -1.14 1
01:00 634 J/kg -2.1 K 0 % 0 % 0 % 0 m²/s² 0 0 -0.72 2
02:00 774 J/kg -2.5 K 0 % 0 % 0 % 0 m²/s² 0 0 -1.18 80
03:00 710 J/kg -2.4 K 0 % 0 % 0 % 0 m²/s² 0 0 -0.93 3
04:00 742 J/kg -2.5 K 0 % 0 % 0 % 0 m²/s² 0 0 -1.03 95
05:00 778 J/kg -2.8 K 0 % 0 % 0 % 0 m²/s² 0 0 -0.91 80
06:00 798 J/kg -3.2 K 0 % 0 % 0 % 0 m²/s² 0 0 -1.1 45
07:00 812 J/kg -3.6 K 0 % 0 % 0 % 0 m²/s² 0 0 -1.38 3
08:00 968 J/kg -3.9 K 0 % 0 % 0 % 0 m²/s² 0 0 -1.86 3
09:00 1458 J/kg -5.3 K 0 % 0 % 0 % 0 m²/s² 0 0 -3.47 3
10:00 1497 J/kg -5.6 K 0 % 0 % 0 % 0 m²/s² 0 0 -3.71 95
11:00 1165 J/kg -4.6 K 0 % 0 % 0 % 0 m²/s² 0 0 -2.65 3
12:00 898 J/kg -3.7 K 0 % 0 % 0 % 0 m²/s² 0 0 -1.99 3
13:00 716 J/kg -3.1 K 0 % 0 % 0 % 0 m²/s² 0 0 -1.27 3
14:00 424 J/kg -2.0 K 0 % 0 % 0 % 0 m²/s² 0 0 0.16 2
15:00 297 J/kg -1.2 K 0 % 0 % 0 % 0 m²/s² 0 0 0.33 2
16:00 201 J/kg -0.8 K 0 % 0 % 0 % 0 m²/s² 0 0 1.03 2
17:00 214 J/kg -0.9 K 0 % 0 % 0 % 0 m²/s² 0 0 0.51 2
18:00 424 J/kg -1.7 K 0 % 0 % 0 % 0 m²/s² 0 0 0.01 2
19:00 552 J/kg -2.0 K 0 % 0 % 0 % 0 m²/s² 0 0 -0.11 2
20:00 640 J/kg -2.4 K 0 % 0 % 0 % 0 m²/s² 0 0 -0.45 3
21:00 523 J/kg -1.9 K 0 % 0 % 0 % 0 m²/s² 0 0 0.77 3
22:00 374 J/kg -0.9 K 0 % 0 % 0 % 0 m²/s² 0 0 1.89 2
23:00 170 J/kg 0.2 K 0 % 0 % 0 % 0 m²/s² 0 0 3.41 1
 05:15     21:24    Daglengte: 16:09 Woensdag 28 Jul
00:00 151 J/kg 0.0 K 0 % 0 % 0 % 0 m²/s² 0 0 2.97 0
01:00 157 J/kg 0.0 K 0 % 0 % 0 % 0 m²/s² 0 0 2.79 1
02:00 113 J/kg 0.0 K 0 % 0 % 0 % 0 m²/s² 0 0 2.49 0
03:00 63 J/kg -0.1 K 0 % 0 % 0 % 0 m²/s² 0 0 2.12 1
04:00 37 J/kg 0.5 K 0 % 0 % 0 % 0 m²/s² 0 0 2.03 3
05:00 110 J/kg 0.4 K 0 % 0 % 0 % 0 m²/s² 0 0 0.88 3
06:00 141 J/kg 0.1 K 0 % 0 % 0 % 0 m²/s² 0 0 0.19 3
07:00 138 J/kg 0.0 K 0 % 0 % 0 % 0 m²/s² 0 0 0.33 3
08:00 205 J/kg -0.9 K 0 % 0 % 0 % 0 m²/s² 0 0 -0.51 3
09:00 142 J/kg -0.9 K 0 % 0 % 0 % 0 m²/s² 0 0 -0.39 3
10:00 479 J/kg -1.8 K 0 % 0 % 0 % 0 m²/s² 0 0 -1.29 2
11:00 354 J/kg -1.1 K 0 % 0 % 0 % 0 m²/s² 0 0 -0.17 3
12:00 389 J/kg -1.4 K 0 % 0 % 0 % 0 m²/s² 0 0 -0.5 3
13:00 564 J/kg -2.3 K 0 % 0 % 0 % 0 m²/s² 0 0 -1.55 3
14:00 502 J/kg -2.1 K 0 % 0 % 0 % 0 m²/s² 0 0 -1.17 3
15:00 342 J/kg -1.3 K 0 % 0 % 0 % 0 m²/s² 0 0 -0.16 2
16:00 425 J/kg -1.3 K 0 % 0 % 0 % 0 m²/s² 0 0 -0.37 2
17:00 467 J/kg -1.3 K 0 % 0 % 0 % 0 m²/s² 0 0 0.17 2
18:00 482 J/kg -1.6 K 0 % 0 % 0 % 0 m²/s² 0 0 0.8 3
19:00 488 J/kg -1.7 K 0 % 0 % 0 % 0 m²/s² 0 0 0.16 3
20:00 386 J/kg -1.7 K 0 % 0 % 0 % 0 m²/s² 0 0 0.49 80
21:00 457 J/kg -1.9 K 0 % 0 % 0 % 0 m²/s² 0 0 -0.85 3
22:00 458 J/kg -2.0 K 0 % 0 % 0 % 0 m²/s² 0 0 -1.25 3
23:00 403 J/kg -1.6 K 0 % 0 % 0 % 0 m²/s² 0 0 1.01 2
 05:17     21:23    Daglengte: 16:06 Donderdag 29 Jul
00:00 610 J/kg -2.5 K 0 % 0 % 0 % 0 m²/s² 0 0 -0.37 3
01:00 672 J/kg -3.2 K 0 % 0 % 0 % 0 m²/s² 0 0 -2.63 3
02:00 695 J/kg -3.6 K 0 % 0 % 0 % 0 m²/s² 0 0 -2.16 3
03:00 587 J/kg -3.2 K 0 % 0 % 0 % 0 m²/s² 0 0 -2.18 3
04:00 352 J/kg -1.1 K 0 % 0 % 0 % 0 m²/s² 0 0 0.01 3
05:00 263 J/kg 0.1 K 0 % 0 % 0 % 0 m²/s² 0 0 4.18 2
06:00 302 J/kg 0.1 K 0 % 0 % 0 % 0 m²/s² 0 0 3.79 3
07:00 285 J/kg 0.2 K 0 % 0 % 0 % 0 m²/s² 0 0 2.72 3
08:00 202 J/kg 1.2 K 0 % 0 % 0 % 0 m²/s² 0 0 1.38 3
09:00 299 J/kg 1.1 K 0 % 0 % 0 % 0 m²/s² 0 0 1.4 80
10:00 353 J/kg 0.6 K 0 % 0 % 0 % 0 m²/s² 0 0 1.92 3
11:00 364 J/kg 0.6 K 0 % 0 % 0 % 0 m²/s² 0 0 2.67 80
12:00 173 J/kg 3.0 K 0 % 0 % 0 % 0 m²/s² 0 0 6.45 80
13:00 118 J/kg 3.9 K 0 % 0 % 0 % 0 m²/s² 0 0 8.43 3
14:00 267 J/kg 2.5 K 0 % 0 % 0 % 0 m²/s² 0 0 5.92 3
Temp Baro Wind Neerslag
  EWN Forecast EWN WRFDA DWD ICON FMI HIRLAM MET Norway GFS
 05:12     21:28    Daglengte: 16:16 Vandaag
17:00 25.1° 1010.8 hPa 4.7 m/s 0.0 mm 26.4° 1010.6 hPa 6.0 m/s 0.1 mm 24.8° 1010.9 hPa 5.1 m/s -2.0 mm 25.0° 1010.5 hPa 3.8 m/s 0.0 mm 22.3° 1010.6 hPa 3.5 m/s
20:00 23.2° 1010.4 hPa 4.3 m/s 0.0 mm 22.7° 1010.0 hPa 4.7 m/s 0.1 mm 22.4° 1010.5 hPa 3.3 m/s 0.0 mm 23.3° 1010.2 hPa 4.4 m/s 0.0 mm 21.4° 1009.9 hPa 4.3 m/s
23:00 19.7° 1010.4 hPa 2.2 m/s 0.0 mm 18.1° 1009.9 hPa 3.3 m/s 0.1 mm 18.8° 1010.6 hPa 2.1 m/s 0.0 mm 19.9° 1010.0 hPa 2.1 m/s 0.0 mm 18.0° 1010.1 hPa 3.3 m/s
 05:14     21:26    Daglengte: 16:12 Morgen
02:00 18.5° 1009.8 hPa 2.6 m/s 0.0 mm 16.2° 1009.3 hPa 2.5 m/s 0.1 mm 17.9° 1010.0 hPa 2.0 m/s 0.2 mm 18.7° 1009.0 hPa 2.7 m/s 0.0 mm 17.0° 1009.8 hPa 1.8 m/s
05:00 18.4° 1009.2 hPa 1.9 m/s 0.0 mm 17.4° 1008.4 hPa 1.6 m/s 0.1 mm 17.0° 1009.8 hPa 1.4 m/s 2.3 mm 18.8° 1007.9 hPa 2.6 m/s 0.0 mm 16.5° 1009.1 hPa 1.8 m/s
08:00 19.9° 1008.9 hPa 1.9 m/s 0.0 mm 19.4° 1007.8 hPa 3.0 m/s 0.2 mm 19.1° 1009.6 hPa 1.5 m/s 0.0 mm 20.8° 1008.1 hPa 3.3 m/s 0.0 mm 19.6° 1009.3 hPa 2.6 m/s
11:00 21.8° 1009.4 hPa 4.4 m/s 1.5 mm 24.6° 1007.8 hPa 3.9 m/s 0.2 mm 20.9° 1009.9 hPa 3.8 m/s 2.0 mm 23.8° 1008.5 hPa 4.8 m/s 0.0 mm 22.6° 1009.4 hPa 4.5 m/s
14:00 23.6° 1009.2 hPa 5.0 m/s 0.0 mm 25.1° 1008.2 hPa 4.8 m/s 3.2 mm 22.6° 1009.5 hPa 5.2 m/s 0.0 mm 25.1° 1008.5 hPa 4.8 m/s 0.0 mm 23.8° 1009.5 hPa 5.7 m/s
17:00 22.6° 1009.0 hPa 5.2 m/s 0.0 mm 25.8° 1007.6 hPa 5.5 m/s 4.9 mm 21.8° 1009.3 hPa 5.4 m/s 0.0 mm 22.3° 1008.5 hPa 4.3 m/s 0.0 mm 22.1° 1009.5 hPa 6.0 m/s
20:00 20.9° 1008.8 hPa 4.1 m/s 0.0 mm 23.2° 1007.6 hPa 4.4 m/s 4.9 mm 20.6° 1009.5 hPa 3.4 m/s 0.0 mm 20.8° 1008.4 hPa 4.0 m/s 0.0 mm 19.8° 1009.3 hPa 4.0 m/s
23:00 17.9° 1009.4 hPa 2.5 m/s 0.0 mm 17.5° 1008.2 hPa 3.1 m/s 4.9 mm 17.2° 1009.7 hPa 2.3 m/s 0.0 mm 17.9° 1009.3 hPa 1.9 m/s 0.0 mm 16.6° 1010.1 hPa 3.0 m/s
 05:15     21:24    Daglengte: 16:09 Woensdag 28 Jul
02:00 16.3° 1008.9 hPa 1.5 m/s 0.0 mm 17.2° 1007.6 hPa 1.9 m/s 4.9 mm 16.0° 1009.3 hPa 1.3 m/s 0.0 mm 15.7° 1008.9 hPa 1.4 m/s 0.0 mm 16.1° 1009.6 hPa 2.9 m/s
05:00 16.1° 1008.0 hPa 2.0 m/s 0.0 mm 16.6° 1007.4 hPa 2.9 m/s 5.0 mm 15.8° 1008.5 hPa 1.3 m/s 0.0 mm 15.4° 1008.1 hPa 1.8 m/s 0.0 mm 15.7° 1008.4 hPa 3.2 m/s
08:00 18.7° 1007.8 hPa 2.9 m/s 0.0 mm 17.9° 1006.6 hPa 2.3 m/s 15.1 mm 18.6° 1007.7 hPa 3.0 m/s 0.0 mm 19.7° 1007.9 hPa 2.4 m/s 0.0 mm 19.1° 1008.3 hPa 4.5 m/s
11:00 19.6° 1007.6 hPa 5.6 m/s 2.3 mm 20.9° 1006.0 hPa 5.8 m/s 16.4 mm 19.5° 1007.9 hPa 6.0 m/s 0.0 mm 20.2° 1008.1 hPa 4.2 m/s
14:00 21.3° 1006.6 hPa 6.0 m/s 2.3 mm 21.4° 1005.8 hPa 6.0 m/s 16.7 mm 21.1° 1006.6 hPa 6.1 m/s 0.0 mm 19.3° 1008.1 hPa 5.1 m/s
17:00 20.9° 1006.1 hPa 5.4 m/s 1.4 mm 20.7° 1005.9 hPa 4.3 m/s 17.4 mm 20.8° 1006.0 hPa 6.0 m/s 0.2 mm 21.3° 1007.3 hPa 6.7 m/s
20:00 19.2° 1005.2 hPa 4.3 m/s 7.4 mm 22.0° 1005.1 hPa 4.3 m/s 18.0 mm 18.3° 1004.6 hPa 5.2 m/s 0.7 mm 18.6° 1007.0 hPa 5.2 m/s
23:00 17.2° 1005.3 hPa 4.9 m/s 4.7 mm 16.5° 1005.3 hPa 3.6 m/s 18.1 mm 17.2° 1004.3 hPa 5.3 m/s 0.1 mm 15.3° 1006.9 hPa 3.7 m/s
 05:17     21:23    Daglengte: 16:06 Donderdag 29 Jul
02:00 16.1° 1004.6 hPa 3.8 m/s 2.5 mm 15.8° 1004.6 hPa 3.2 m/s 18.1 mm 15.9° 1003.6 hPa 4.8 m/s 0.0 mm 14.4° 1006.0 hPa 3.5 m/s
05:00 15.2° 1003.9 hPa 4.2 m/s 0.0 mm 13.7° 1004.0 hPa 3.1 m/s 18.3 mm 15.2° 1002.5 hPa 5.1 m/s 0.0 mm 14.5° 1004.5 hPa 4.3 m/s
08:00 16.8° 1003.3 hPa 5.8 m/s 0.0 mm 18.0° 1003.6 hPa 5.6 m/s 18.3 mm 15.6° 1001.4 hPa 6.6 m/s 0.0 mm 14.8° 1003.0 hPa 6.3 m/s
11:00 16.6° 1001.7 hPa 8.3 m/s 7.0 mm 18.5° 1002.9 hPa 8.1 m/s 19.2 mm 16.1° 1001.4 hPa 8.4 m/s 0.9 mm 16.9° 1003.0 hPa 9.7 m/s
14:00 17.2° 1001.7 hPa 9.2 m/s 7.3 mm 19.9° 1002.2 hPa 10.8 m/s 20.9 mm 16.5° 1001.5 hPa 8.8 m/s 0.5 mm 17.1° 1002.7 hPa 11.1 m/s
17:00 15.1° 1001.6 hPa 11.6 m/s 9.3 mm 15.1° 1001.6 hPa 11.6 m/s 9.3 mm
20:00 15.8° 1002.6 hPa 10.2 m/s 9.8 mm 15.8° 1002.6 hPa 10.2 m/s 9.8 mm
23:00 14.8° 1002.5 hPa 8.4 m/s 9.9 mm 14.8° 1002.5 hPa 8.4 m/s 9.9 mm
 05:19     21:21    Daglengte: 16:02 Vrijdag 30 Jul
02:00 15.1° 1001.0 hPa 8.7 m/s 10.7 mm 15.1° 1001.0 hPa 8.7 m/s 10.7 mm
05:00 14.9° 1000.4 hPa 7.6 m/s 11.4 mm 14.9° 1000.4 hPa 7.6 m/s 11.4 mm
08:00 15.8° 1001.5 hPa 7.6 m/s 11.5 mm 15.8° 1001.5 hPa 7.6 m/s 11.5 mm
11:00 19.8° 1002.1 hPa 9.3 m/s 11.7 mm 19.8° 1002.1 hPa 9.3 m/s 11.7 mm
14:00 20.6° 1002.4 hPa 9.8 m/s 12.2 mm 20.6° 1002.4 hPa 9.8 m/s 12.2 mm
17:00 20.3° 1003.4 hPa 10.0 m/s 12.2 mm 20.3° 1003.4 hPa 10.0 m/s 12.2 mm
20:00 17.4° 1004.0 hPa 8.5 m/s 12.2 mm 17.4° 1004.0 hPa 8.5 m/s 12.2 mm
23:00 15.5° 1004.5 hPa 7.0 m/s 12.2 mm 15.5° 1004.5 hPa 7.0 m/s 12.2 mm
 05:21     21:19    Daglengte: 15:58 Zaterdag 31 Jul
02:00 14.8° 1004.9 hPa 6.0 m/s 12.2 mm 14.8° 1004.9 hPa 6.0 m/s 12.2 mm
05:00 14.3° 1004.1 hPa 4.6 m/s 12.3 mm 14.3° 1004.1 hPa 4.6 m/s 12.3 mm
08:00 16.6° 1004.4 hPa 5.8 m/s 12.3 mm 16.6° 1004.4 hPa 5.8 m/s 12.3 mm
11:00 17.8° 1004.3 hPa 5.2 m/s 12.3 mm 17.8° 1004.3 hPa 5.2 m/s 12.3 mm
14:00 19.3° 1003.2 hPa 5.2 m/s 12.4 mm 19.3° 1003.2 hPa 5.2 m/s 12.4 mm
17:00 18.3° 1002.0 hPa 5.9 m/s 14.9 mm 18.3° 1002.0 hPa 5.9 m/s 14.9 mm
20:00 17.3° 1001.0 hPa 5.1 m/s 16.7 mm 17.3° 1001.0 hPa 5.1 m/s 16.7 mm
23:00 13.6° 1000.8 hPa 2.5 m/s 16.8 mm 13.6° 1000.8 hPa 2.5 m/s 16.8 mm
 05:23     21:17    Daglengte: 15:54 Zondag 01 Aug
02:00 14.0° 1000.2 hPa 3.7 m/s 17.1 mm 14.0° 1000.2 hPa 3.7 m/s 17.1 mm
05:00 12.5° 1000.6 hPa 3.3 m/s 17.2 mm 12.5° 1000.6 hPa 3.3 m/s 17.2 mm
08:00 14.7° 1001.8 hPa 4.8 m/s 17.2 mm 14.7° 1001.8 hPa 4.8 m/s 17.2 mm
11:00 18.0° 1002.2 hPa 6.7 m/s 17.2 mm 18.0° 1002.2 hPa 6.7 m/s 17.2 mm
14:00 19.4° 1002.5 hPa 6.4 m/s 17.4 mm 19.4° 1002.5 hPa 6.4 m/s 17.4 mm
17:00 18.9° 1002.8 hPa 5.8 m/s 18.1 mm 18.9° 1002.8 hPa 5.8 m/s 18.1 mm
20:00 16.5° 1003.0 hPa 5.1 m/s 18.1 mm 16.5° 1003.0 hPa 5.1 m/s 18.2 mm
23:00 12.8° 1003.7 hPa 4.2 m/s 18.1 mm 12.8° 1003.7 hPa 4.2 m/s 18.2 mm
 05:24     21:15    Daglengte: 15:51 Maandag 02 Aug
02:00 12.1° 1004.0 hPa 4.7 m/s 18.1 mm 12.1° 1004.0 hPa 4.7 m/s 18.2 mm
05:00 12.3° 1003.8 hPa 6.1 m/s 18.2 mm 12.3° 1003.8 hPa 6.1 m/s 18.2 mm
08:00 14.3° 1004.3 hPa 7.6 m/s 18.4 mm 14.3° 1004.3 hPa 7.6 m/s 18.4 mm
11:00 16.3° 1005.4 hPa 8.4 m/s 18.7 mm 16.3° 1005.4 hPa 8.4 m/s 18.7 mm
14:00 17.6° 1006.4 hPa 8.5 m/s 18.9 mm 17.6° 1006.4 hPa 8.5 m/s 18.9 mm
20:00 15.9° 1007.9 hPa 8.0 m/s 19.2 mm 15.9° 1007.9 hPa 8.0 m/s 19.2 mm
 05:26     21:13    Daglengte: 15:47 Dinsdag 03 Aug
02:00 12.7° 1010.0 hPa 5.9 m/s 19.4 mm 12.7° 1010.0 hPa 5.9 m/s 19.4 mm
08:00 14.7° 1010.8 hPa 5.7 m/s 19.7 mm 14.7° 1010.8 hPa 5.7 m/s 19.7 mm
14:00 18.0° 1011.0 hPa 6.8 m/s 19.9 mm 18.0° 1011.0 hPa 6.8 m/s 19.9 mm
20:00 17.1° 1010.6 hPa 3.3 m/s 20.2 mm 17.1° 1010.6 hPa 3.3 m/s 20.3 mm
 05:28     21:11    Daglengte: 15:43 Woensdag 04 Aug
02:00 12.3° 1011.5 hPa 3.3 m/s 20.2 mm 12.3° 1011.5 hPa 3.3 m/s 20.3 mm
08:00 17.0° 1009.1 hPa 7.1 m/s 20.3 mm 17.0° 1009.1 hPa 7.1 m/s 20.3 mm
14:00 19.4° 1007.1 hPa 8.6 m/s 20.9 mm 19.4° 1007.1 hPa 8.6 m/s 20.9 mm
20:00 16.3° 1005.1 hPa 7.0 m/s 22.8 mm 16.3° 1005.1 hPa 7.1 m/s 22.8 mm
 05:30     21:09    Daglengte: 15:39 Donderdag 05 Aug
02:00 14.4° 1003.6 hPa 5.9 m/s 23.9 mm 14.4° 1003.6 hPa 5.9 m/s 23.9 mm
08:00 16.3° 1001.8 hPa 7.9 m/s 24.4 mm 16.3° 1001.8 hPa 7.9 m/s 24.4 mm
14:00 20.0° 1009.4 hPa 4.1 m/s 0.8 mm
20:00 17.8° 1008.5 hPa 3.0 m/s 0.8 mm
 05:32     21:07    Daglengte: 15:35 Vrijdag 06 Aug
02:00 14.0° 1008.5 hPa 2.8 m/s 0.6 mm
08:00 15.8° 1007.9 hPa 3.1 m/s 0.6 mm
14:00 19.5° 1007.9 hPa 4.2 m/s 1.4 mm
20:00 17.5° 1007.7 hPa 3.3 m/s 1.1 mm
 05:34     21:05    Daglengte: 15:31 Zaterdag 07 Aug
02:00 14.1° 1008.3 hPa 2.4 m/s 0.4 mm
08:00 15.8° 1008.5 hPa 3.1 m/s 0.4 mm
14:00 19.8° 1008.8 hPa 4.2 m/s 0.2 mm
20:00 17.5° 1008.7 hPa 2.9 m/s 0.8 mm
 05:36     21:02    Daglengte: 15:26 Zondag 08 Aug
02:00 14.2° 1009.2 hPa 2.5 m/s 0.4 mm
08:00 15.6° 1009.1 hPa 3.0 m/s 0.6 mm
14:00 19.3° 1009.3 hPa 3.4 m/s 1.3 mm
20:00 17.4° 1009.2 hPa 2.8 m/s 1.7 mm
 05:37     21:00    Daglengte: 15:23 Maandag 09 Aug
02:00 14.2° 1010.0 hPa 2.5 m/s 1.6 mm
08:00 15.7° 1010.9 hPa 3.2 m/s 0.1 mm
14:00 20.1° 1012.1 hPa 4.4 m/s 0.7 mm
20:00 17.6° 1012.5 hPa 3.8 m/s 0.6 mm
 05:39     20:58    Daglengte: 15:19 Dinsdag 10 Aug
02:00 14.3° 1013.2 hPa 3.1 m/s 0.3 mm
08:00 15.9° 1012.9 hPa 3.2 m/s 0.6 mm
14:00 20.4° 1013.3 hPa 4.7 m/s 0.8 mm
FMI Hirlam - 7.5 km EWN WRFDA - 12 km DWD ICON - 7 km GFS - 25 km Basiskaart






























































Updatetijd (Europe/Amsterdam) Resolutie Lengte Stap
FMI Hirlam 14:00, 20:00, 02:00, 08:00 7.5 km 49h 1h
EWN WRFDA 10:30, 16:30, 22:30, 04:30 12 km 73h 1h
DWD ICON 11:45, 17:45, 23:45, 05:45 7 km 75h 1h
GFS 14:15, 20:15, 02:15, 08:15 25 km 237h 3h
30+ mm
25-30 mm
20-25 mm
15-20 mm
10-15 mm
6-10 mm
4-6 mm
2-4 mm
1-2 mm
0.5-1 mm
0.2-0.5 mm
0.1-0.2 mm
30+ mm
25-30 mm
20-25 mm
15-20 mm
10-15 mm
6-10 mm
4-6 mm
2-4 mm
1-2 mm
0.5-1 mm
0.2-0.5 mm
0.1-0.2 mm
Sneeuwval
Natte sneeuw
Hagel
Vorst
30+ mm
25-30 mm
20-25 mm
15-20 mm
10-15 mm
6-10 mm
4-6 mm
2-4 mm
1-2 mm
0.5-1 mm
0.2-0.5 mm
0.1-0.2 mm
Sneeuwval
Natte sneeuw
Hagel
Vorst
Onweer
50 mm
40 mm
30 mm
26 mm
22 mm
18 mm
14 mm
10 mm
9 mm
8 mm
7 mm
6 mm
5 mm
4.5 mm
4 mm
3.5 mm
3 mm
2.5 mm
2 mm
1.5 mm
1 mm
0.8 mm
0.6 mm
0.4 mm
0.2 mm
0.05 mm
35°
30°
25°
20°
15°
10°
-5°
-10°
-15°
-20°
-25°
-30°
-35°
33> m/s
29 m/s
25 m/s
21 m/s
17 m/s
14 m/s
11 m/s
8 m/s
5 m/s
3 m/s
0 m/s
2600 J/kg
2400 J/kg
2200 J/kg
2000 J/kg
1800 J/kg
1600 J/kg
1400 J/kg
1200 J/kg
1000 J/kg
800 J/kg
600 J/kg
400 J/kg
200 J/kg
70 dBZ
65 dBZ
60 dBZ
55 dBZ
50 dBZ
45 dBZ
40 dBZ
35 dBZ
30 dBZ
25 dBZ
20 dBZ
15 dBZ
10 dBZ
5 dBZ
-1 K
-2 K
-3 K
-4 K
-5 K
-6 K
-7 K
-8 K
-9 K
950 m²/s²
900 m²/s²
850 m²/s²
800 m²/s²
750 m²/s²
700 m²/s²
650 m²/s²
600 m²/s²
550 m²/s²
500 m²/s²
450 m²/s²
400 m²/s²
350 m²/s²
300 m²/s²
250 m²/s²
200 m²/s²
150 m²/s²
100 m²/s²
46 m/s
44 m/s
42 m/s
40 m/s
38 m/s
36 m/s
34 m/s
32 m/s
30 m/s
28 m/s
26 m/s
24 m/s
22 m/s
20 m/s
16 m/s
12 m/s
8 m/s
4 m/s
30 m/s
28 m/s
26 m/s
24 m/s
22 m/s
20 m/s
18 m/s
16 m/s
14 m/s
12 m/s
10 m/s
8 m/s
6 m/s
4 m/s
2 m/s
3.0
2.8
2.6
2.4
2.2
2.0
1.8
1.6
1.4
1.2
1.0
0.8
0.6
0.4
0.2
15
14
13
12
11
10
9
8
7
6
5
4
3
2
1
90%
80%
70%
60%
50%
40%
30%
20%
10%
42
40
38
36
34
32
30
28
26
24
22
20
18
16
14
12
90+ cm
80-90 cm